Canby, MN

7:03 AM CDT on April 19, 2018 (GMT -0500)
Canby

Weather History for KCNB - February, 2013

Change the Weather History Date:

Sunday, February 3, 2013

  Actual Average (KMML) Record (KMML)
Temperature  
Mean Temperature 14 °F -  
Max Temperature 19 °F 21 °F 50 °F (1962)
Min Temperature 10 °F 3 °F -24 °F (1982)
Degree Days  
Heating Degree Days 50    
Moisture  
Dew Point 10 °F    
Average Humidity 81    
Maximum Humidity 92    
Minimum Humidity 70    
Precipitation  
Precipitation 0.00 in - - ()
Sea Level Pressure  
Sea Level Pressure 30.01 in    
Wind  
Wind Speed 9 mph (North)    
Max Wind Speed 16 mph    
Max Gust Speed 24 mph    
Visibility 10 miles    
Events Snow    
Averages and records for this station are not official NWS values.
T = Trace of Precipitation, MM = Missing Value Source: NWS Daily Summary

Daily Weather History Graph

Daily Weather History Graph

Search for Another Location

Airport or City:

Astronomy

Feb. 03, 2013 Rise Set
Actual Time 7:41 AM CST 5:36 PM CST
Civil Twilight 7:10 AM CST 6:07 PM CST
Nautical Twilight 6:35 AM CST 6:42 PM CST
Astronomical Twilight 6:01 AM CST 7:16 PM CST
Moon 1:11 AM CST (2/3) 11:13 AM CST (2/3)
Length of Visible Light 10h 57m
Length of Day
9h 55m
Waning Gibbous, 48% of the Moon is Illuminated
Feb 3
Waning Gibbous
Feb 10
New
Feb 17
First Quarter
Feb 25
Full
Mar 4
Last Quarter

Hourly Weather History & Observations

Time (CST) Temp. Windchill Dew Point Humidity Pressure Visibility Wind Dir Wind Speed Gust Speed Precip Events Conditions
12:16 AM 14.9 °F -0.8 °F 10.4 °F 82% 30.09 in 10.0 mi NW 16.1 mph 24.2 mph N/A   Clear
12:35 AM 14.0 °F -1.4 °F 9.7 °F 83% 30.10 in 10.0 mi NW 15.0 mph 19.6 mph N/A   Clear
12:56 AM 13.1 °F 1.8 °F 9.0 °F 84% 30.11 in 10.0 mi NW 8.1 mph - N/A   Clear
1:16 AM 13.1 °F -0.7 °F 8.6 °F 82% 30.11 in 10.0 mi NW 11.5 mph - N/A   Clear
1:36 AM 12.4 °F 0.0 °F 8.2 °F 83% 30.11 in 10.0 mi NW 9.2 mph - N/A   Clear
1:56 AM 11.7 °F 1.1 °F 7.5 °F 83% 30.10 in 10.0 mi NW 6.9 mph - N/A   Clear
2:15 AM 11.1 °F -2.4 °F 7.2 °F 84% 30.11 in 10.0 mi WNW 10.4 mph - N/A   Clear
2:36 AM 10.9 °F -2.6 °F 7.2 °F 85% 30.12 in 7.0 mi WNW 10.4 mph 16.1 mph N/A Snow Light Snow
2:56 AM 11.3 °F -2.2 °F 7.5 °F 85% 30.12 in 10.0 mi West 10.4 mph - N/A   Overcast
3:16 AM 10.8 °F -2.8 °F 6.6 °F 83% 30.12 in 10.0 mi West 10.4 mph - N/A   Scattered Clouds
3:56 AM 10.4 °F -2.4 °F 5.9 °F 82% 30.10 in 10.0 mi West 9.2 mph - N/A   Scattered Clouds
4:16 AM 11.1 °F -1.6 °F 5.9 °F 80% 30.10 in 10.0 mi West 9.2 mph - N/A   Clear
4:36 AM 10.9 °F -1.8 °F 5.4 °F 78% 30.10 in 10.0 mi West 9.2 mph - N/A   Clear
4:55 AM 11.3 °F 0.7 °F 5.7 °F 78% 30.10 in 10.0 mi NW 6.9 mph - N/A   Mostly Cloudy
5:16 AM 10.6 °F 1.0 °F 5.2 °F 79% 30.09 in 10.0 mi WNW 5.8 mph - N/A   Mostly Cloudy
5:36 AM 10.4 °F -1.5 °F 5.9 °F 82% 30.09 in 10.0 mi West 8.1 mph - N/A   Mostly Cloudy
5:56 AM 11.7 °F 1.1 °F 6.4 °F 80% 30.08 in 10.0 mi West 6.9 mph - N/A   Overcast
6:15 AM 12.9 °F 0.7 °F 7.3 °F 78% 30.08 in 10.0 mi WNW 9.2 mph - N/A   Overcast
6:36 AM 13.1 °F 0.9 °F 7.3 °F 78% 30.07 in 10.0 mi WNW 9.2 mph - N/A   Overcast
6:56 AM 13.6 °F 2.5 °F 7.7 °F 77% 30.07 in 10.0 mi West 8.1 mph - N/A   Overcast
7:15 AM 14.0 °F 5.1 °F 8.1 °F 77% 30.07 in 10.0 mi West 5.8 mph - N/A   Overcast
7:36 AM 14.4 °F 3.3 °F 8.4 °F 77% 30.07 in 10.0 mi West 8.1 mph - N/A   Overcast
7:56 AM 14.7 °F 4.8 °F 8.6 °F 77% 30.06 in 10.0 mi WNW 6.9 mph - N/A   Overcast
8:15 AM 14.9 °F 7.5 °F 9.3 °F 79% 30.07 in 10.0 mi WNW 4.6 mph - N/A   Overcast
8:36 AM 15.3 °F 6.6 °F 9.3 °F 77% 30.08 in 10.0 mi NW 5.8 mph - N/A   Overcast
8:55 AM 15.4 °F 4.6 °F 9.5 °F 77% 30.07 in 10.0 mi West 8.1 mph - N/A   Overcast
9:16 AM 15.6 °F 5.9 °F 9.3 °F 76% 30.08 in 10.0 mi WNW 6.9 mph - N/A   Overcast
9:36 AM 15.8 °F 5.1 °F 9.5 °F 76% 30.07 in 10.0 mi WNW 8.1 mph - N/A   Overcast
9:55 AM 15.8 °F 8.6 °F 9.0 °F 74% 30.06 in 10.0 mi NNW 4.6 mph - N/A   Overcast
10:16 AM 16.0 °F 6.3 °F 9.1 °F 74% 30.06 in 10.0 mi NNW 6.9 mph - N/A   Overcast
10:35 AM 16.2 °F 9.0 °F 8.8 °F 73% 30.07 in 10.0 mi North 4.6 mph - N/A   Overcast
10:56 AM 16.0 °F 10.4 °F 8.4 °F 72% 30.06 in 10.0 mi North 3.5 mph - N/A   Overcast
11:16 AM 16.3 °F 9.2 °F 9.3 °F 74% 30.05 in 10.0 mi NNE 4.6 mph - N/A   Overcast
11:35 AM 16.5 °F 11.0 °F 9.0 °F 72% 30.04 in 10.0 mi NNE 3.5 mph - N/A   Overcast
11:56 AM 16.9 °F 11.5 °F 9.9 °F 74% 30.02 in 10.0 mi East 3.5 mph - N/A   Overcast
12:15 PM 17.6 °F 12.3 °F 9.3 °F 70% 30.00 in 10.0 mi East 3.5 mph - N/A   Overcast
12:36 PM 18.1 °F 12.9 °F 10.2 °F 71% 30.00 in 10.0 mi ESE 3.5 mph - N/A   Overcast
12:55 PM 19.0 °F 13.9 °F 10.8 °F 70% 29.99 in 10.0 mi SE 3.5 mph - N/A   Overcast
1:16 PM 17.8 °F 10.9 °F 10.9 °F 75% 29.98 in 10.0 mi SE 4.6 mph - N/A   Overcast
1:36 PM 18.3 °F 10.2 °F 11.3 °F 74% 29.96 in 10.0 mi SE 5.8 mph - N/A   Overcast
1:56 PM 18.5 °F 11.7 °F 11.8 °F 75% 29.95 in 10.0 mi ESE 4.6 mph - N/A   Overcast
2:16 PM 18.5 °F 9.3 °F 11.7 °F 75% 29.94 in 10.0 mi East 6.9 mph - N/A   Overcast
2:36 PM 18.7 °F 9.5 °F 12.2 °F 76% 29.93 in 10.0 mi East 6.9 mph - N/A   Overcast
2:55 PM 18.9 °F 9.8 °F 12.6 °F 76% 29.93 in 10.0 mi East 6.9 mph - N/A   Overcast
3:16 PM 19.0 °F 9.0 °F 13.1 °F 78% 29.92 in 10.0 mi ESE 8.1 mph - N/A   Overcast
3:36 PM 18.9 °F 9.8 °F 13.1 °F 78% 29.92 in 10.0 mi ESE 6.9 mph - N/A   Overcast
3:56 PM 18.9 °F 8.8 °F 13.5 °F 79% 29.92 in 10.0 mi East 8.1 mph - N/A   Overcast
4:16 PM 18.7 °F 8.6 °F 13.6 °F 81% 29.92 in 10.0 mi East 8.1 mph - N/A   Overcast
4:36 PM 18.3 °F 7.3 °F 13.6 °F 82% 29.92 in 10.0 mi East 9.2 mph - N/A   Overcast
4:55 PM 17.6 °F 7.3 °F 13.1 °F 83% 29.92 in 10.0 mi East 8.1 mph - N/A   Overcast
5:16 PM 17.1 °F 5.8 °F 12.7 °F 83% 29.91 in 10.0 mi East 9.2 mph - N/A   Overcast
5:36 PM 16.5 °F 4.3 °F 12.2 °F 83% 29.91 in 10.0 mi East 10.4 mph - N/A   Overcast
5:55 PM 16.2 °F 3.9 °F 11.8 °F 83% 29.90 in 10.0 mi East 10.4 mph - N/A   Overcast
6:16 PM 16.2 °F 4.7 °F 11.8 °F 83% 29.90 in 10.0 mi East 9.2 mph - N/A   Overcast
6:36 PM 15.8 °F 2.7 °F 12.6 °F 87% 29.91 in 3.0 mi East 11.5 mph - N/A Snow Light Snow
6:55 PM 15.6 °F 2.5 °F 13.1 °F 90% 29.90 in 3.0 mi ENE 11.5 mph - N/A Snow Light Snow
7:16 PM 14.9 °F 0.3 °F 12.9 °F 92% 29.89 in 4.0 mi ENE 13.8 mph - N/A Snow Light Snow
7:36 PM 14.5 °F 0.5 °F 12.4 °F 91% 29.89 in 3.0 mi ENE 12.7 mph - N/A Snow Light Snow
7:55 PM 14.4 °F 4.3 °F 12.2 °F 91% 29.92 in 10.0 mi NE 6.9 mph - N/A   Overcast
8:16 PM 14.0 °F 2.0 °F 11.8 °F 91% 29.93 in 10.0 mi NNE 9.2 mph - N/A   Overcast
8:36 PM 13.6 °F 1.6 °F 11.5 °F 91% 29.94 in 10.0 mi NNE 9.2 mph - N/A   Overcast
8:56 PM 13.5 °F 1.3 °F 11.3 °F 91% 29.94 in 10.0 mi NNE 9.2 mph - N/A   Overcast
9:16 PM 13.1 °F 1.8 °F 11.1 °F 92% 29.94 in 10.0 mi NNE 8.1 mph - N/A   Overcast
9:35 PM 12.9 °F 0.7 °F 10.6 °F 90% 29.94 in 10.0 mi NNE 9.2 mph - N/A   Overcast
9:56 PM 12.7 °F 1.4 °F 10.4 °F 90% 29.94 in 10.0 mi NNE 8.1 mph - N/A   Overcast
10:16 PM 12.7 °F 2.4 °F 10.2 °F 90% 29.93 in 10.0 mi NE 6.9 mph - N/A   Overcast
10:36 PM 12.7 °F 2.4 °F 10.2 °F 90% 29.94 in 10.0 mi NNE 6.9 mph - N/A   Overcast
10:55 PM 12.7 °F 1.4 °F 10.0 °F 89% 29.94 in 10.0 mi NNE 8.1 mph - N/A   Overcast
11:16 PM 12.6 °F 1.1 °F 9.9 °F 89% 29.94 in 10.0 mi NNE 8.1 mph - N/A   Overcast
11:36 PM 12.6 °F 0.2 °F 9.5 °F 88% 29.95 in 10.0 mi NNE 9.2 mph - N/A   Overcast
11:56 PM 12.6 °F 1.1 °F 9.9 °F 89% 29.96 in 10.0 mi NNE 8.1 mph - N/A   Overcast